Time,TemperatureF,DewpointF,PressureIn,WindDirection,WindDirectionDegrees,WindSpeedMPH,WindSpeedGustMPH,Humidity,HourlyPrecipIn,Conditions,Clouds,dailyrainin,SoftwareType,DateUTC
2013-02-08 00:12:00,57.2,56.0,29.92,SSE,163,0.0,0.0,94,0.04,,,0.01,weatherlink.com 1.10,2013-02-08 06:12:00,
2013-02-08 00:27:00,57.3,56.0,29.93,SW,235,0.0,1.0,95,0.08,,,0.06,weatherlink.com 1.10,2013-02-08 06:27:00,
2013-02-08 00:43:00,57.4,56.0,29.93,NW,305,1.0,2.0,95,0.17,,,0.15,weatherlink.com 1.10,2013-02-08 06:43:00,
2013-02-08 00:58:00,57.2,56.0,29.92,WNW,295,1.0,6.0,95,0.24,,,0.22,weatherlink.com 1.10,2013-02-08 06:58:00,
2013-02-08 01:13:00,57.1,56.0,29.92,WNW,297,0.0,3.0,95,0.22,,,0.23,weatherlink.com 1.10,2013-02-08 07:13:00,
2013-02-08 01:28:00,57.0,56.0,29.93,NW,312,0.0,4.0,95,0.17,,,0.23,weatherlink.com 1.10,2013-02-08 07:28:00,
2013-02-08 01:43:00,57.0,56.0,29.93,NW,325,1.0,3.0,95,0.07,,,0.23,weatherlink.com 1.10,2013-02-08 07:43:00,
2013-02-08 01:58:00,56.3,55.0,29.94,NW,315,0.0,5.0,94,0.02,,,0.24,weatherlink.com 1.10,2013-02-08 07:58:00,
2013-02-08 02:13:00,55.8,54.0,29.94,NNE,27,1.0,8.0,94,0.01,,,0.24,weatherlink.com 1.10,2013-02-08 08:13:00,
2013-02-08 02:28:00,55.6,54.0,29.95,North,8,1.0,5.0,94,0.01,,,0.24,weatherlink.com 1.10,2013-02-08 08:28:00,
2013-02-08 02:43:00,55.1,53.0,29.95,NNW,340,1.0,4.0,93,0.01,,,0.24,weatherlink.com 1.10,2013-02-08 08:43:00,
2013-02-08 02:58:00,54.7,53.0,29.96,NNW,345,1.0,7.0,93,0.00,,,0.24,weatherlink.com 1.10,2013-02-08 08:58:00,
2013-02-08 03:13:00,53.3,51.0,29.97,ENE,71,1.0,5.0,92,0.00,,,0.24,weatherlink.com 1.10,2013-02-08 09:13:00,
2013-02-08 03:28:00,51.9,50.0,29.98,NNE,13,1.0,9.0,92,0.00,,,0.24,weatherlink.com 1.10,2013-02-08 09:28:00,
2013-02-08 03:43:00,51.2,49.0,30.00,ENE,58,1.0,6.0,93,0.00,,,0.24,weatherlink.com 1.10,2013-02-08 09:43:00,
2013-02-08 03:58:00,50.3,48.0,30.00,NNW,337,2.0,5.0,92,0.01,,,0.25,weatherlink.com 1.10,2013-02-08 09:58:00,
2013-02-08 04:13:00,49.4,47.0,30.01,North,359,3.0,4.0,91,0.02,,,0.26,weatherlink.com 1.10,2013-02-08 10:13:00,
2013-02-08 04:28:00,48.5,46.0,30.03,NNE,16,1.0,4.0,91,0.02,,,0.26,weatherlink.com 1.10,2013-02-08 10:28:00,
2013-02-08 04:43:00,47.9,46.0,30.02,SSE,153,2.0,7.0,91,0.03,,,0.27,weatherlink.com 1.10,2013-02-08 10:43:00,
2013-02-08 04:58:00,47.6,45.0,30.04,ENE,71,2.0,4.0,92,0.02,,,0.27,weatherlink.com 1.10,2013-02-08 10:58:00,
2013-02-08 05:13:00,47.4,45.0,30.05,North,4,1.0,4.0,92,0.01,,,0.27,weatherlink.com 1.10,2013-02-08 11:13:00,
2013-02-08 05:28:00,47.2,45.0,30.05,NW,316,1.0,7.0,91,0.01,,,0.27,weatherlink.com 1.10,2013-02-08 11:28:00,
2013-02-08 05:43:00,46.9,44.0,30.07,NW,322,3.0,-999.0,90,-99.99,,,0.27,weatherlink.com 1.10,2013-02-08 11:43:00,
2013-02-08 05:58:00,46.7,44.0,30.08,NNE,30,1.0,6.0,91,0.00,,,0.27,weatherlink.com 1.10,2013-02-08 11:58:00,
2013-02-08 06:14:00,46.3,44.0,30.09,NNE,27,1.0,4.0,90,0.00,,,0.27,weatherlink.com 1.10,2013-02-08 12:14:00,
2013-02-08 06:29:00,46.0,43.0,30.10,NNW,340,1.0,7.0,90,0.00,,,0.27,weatherlink.com 1.10,2013-02-08 12:29:00,
2013-02-08 06:44:00,45.7,43.0,30.11,East,91,1.0,7.0,89,0.00,,,0.27,weatherlink.com 1.10,2013-02-08 12:44:00,
2013-02-08 06:59:00,45.3,42.0,30.12,NW,310,2.0,7.0,89,0.00,,,0.27,weatherlink.com 1.10,2013-02-08 12:59:00,
2013-02-08 07:14:00,44.6,42.0,30.14,NNW,335,3.0,6.0,89,0.00,,,0.27,weatherlink.com 1.10,2013-02-08 13:14:00,
2013-02-08 07:29:00,44.4,41.0,30.14,NNE,12,0.0,9.0,89,0.00,,,0.27,weatherlink.com 1.10,2013-02-08 13:29:00,
2013-02-08 07:44:00,44.1,41.0,30.16,West,273,0.0,4.0,88,0.00,,,0.27,weatherlink.com 1.10,2013-02-08 13:44:00,
2013-02-08 07:59:00,44.0,40.0,30.17,North,1,1.0,4.0,87,0.00,,,0.27,weatherlink.com 1.10,2013-02-08 13:59:00,
2013-02-08 08:14:00,43.8,40.0,30.18,North,352,2.0,7.0,87,0.00,,,0.27,weatherlink.com 1.10,2013-02-08 14:14:00,
2013-02-08 08:29:00,43.9,40.0,30.18,NNW,330,3.0,4.0,87,0.00,,,0.27,weatherlink.com 1.10,2013-02-08 14:29:00,
2013-02-08 08:44:00,44.0,40.0,30.19,NNW,335,1.0,7.0,85,0.00,,,0.27,weatherlink.com 1.10,2013-02-08 14:44:00,
2013-02-08 08:59:00,44.1,40.0,30.20,NNW,330,1.0,8.0,84,0.00,,,0.27,weatherlink.com 1.10,2013-02-08 14:59:00,
2013-02-08 09:14:00,44.3,39.0,30.21,ESE,116,2.0,11.0,83,0.00,,,0.27,weatherlink.com 1.10,2013-02-08 15:14:00,
2013-02-08 09:29:00,44.4,39.0,30.22,ENE,62,1.0,8.0,82,0.00,,,0.27,weatherlink.com 1.10,2013-02-08 15:29:00,
2013-02-08 09:44:00,44.3,39.0,30.23,West,270,1.0,10.0,82,0.00,,,0.27,weatherlink.com 1.10,2013-02-08 15:44:00,
2013-02-08 09:59:00,44.1,39.0,30.24,NE,47,2.0,6.0,81,0.00,,,0.27,weatherlink.com 1.10,2013-02-08 15:59:00,
2013-02-08 10:14:00,44.0,38.0,30.25,NW,323,2.0,7.0,80,0.00,,,0.27,weatherlink.com 1.10,2013-02-08 16:14:00,
2013-02-08 10:29:00,43.6,38.0,30.26,SSE,155,1.0,7.0,79,0.00,,,0.27,weatherlink.com 1.10,2013-02-08 16:29:00,
2013-02-08 10:44:00,44.0,38.0,30.27,NW,324,4.0,10.0,79,0.00,,,0.27,weatherlink.com 1.10,2013-02-08 16:44:00,
2013-02-08 10:59:00,44.6,38.0,30.27,North,351,4.0,6.0,77,0.00,,,0.27,weatherlink.com 1.10,2013-02-08 16:59:00,
2013-02-08 11:15:00,44.5,38.0,30.27,North,8,1.0,7.0,77,0.00,,,0.27,weatherlink.com 1.10,2013-02-08 17:15:00,
2013-02-08 11:30:00,44.7,38.0,30.27,WSW,257,2.0,6.0,77,0.00,,,0.27,weatherlink.com 1.10,2013-02-08 17:30:00,
2013-02-08 11:45:00,44.6,38.0,30.28,ESE,106,4.0,10.0,77,0.00,,,0.27,weatherlink.com 1.10,2013-02-08 17:45:00,
2013-02-08 12:00:00,44.4,37.0,30.28,WNW,291,2.0,8.0,76,0.00,,,0.27,weatherlink.com 1.10,2013-02-08 18:00:00,
2013-02-08 12:15:00,44.1,38.0,30.28,NE,51,2.0,10.0,78,0.00,,,0.27,weatherlink.com 1.10,2013-02-08 18:15:00,
2013-02-08 12:30:00,44.3,38.0,30.28,North,8,3.0,4.0,78,0.00,,,0.27,weatherlink.com 1.10,2013-02-08 18:30:00,
2013-02-08 12:45:00,44.1,37.0,30.28,NW,313,1.0,7.0,77,0.00,,,0.27,weatherlink.com 1.10,2013-02-08 18:45:00,
2013-02-08 13:00:00,44.0,37.0,30.28,NNE,27,1.0,5.0,77,0.00,,,0.27,weatherlink.com 1.10,2013-02-08 19:00:00,
2013-02-08 13:15:00,44.2,37.0,30.28,NNE,27,2.0,11.0,76,0.00,,,0.27,weatherlink.com 1.10,2013-02-08 19:15:00,
2013-02-08 13:30:00,44.3,37.0,30.27,NNE,27,2.0,6.0,76,0.00,,,0.27,weatherlink.com 1.10,2013-02-08 19:30:00,
2013-02-08 13:45:00,44.5,37.0,30.27,NNW,339,1.0,7.0,75,0.00,,,0.27,weatherlink.com 1.10,2013-02-08 19:45:00,
2013-02-08 14:00:00,44.7,37.0,30.27,NNE,26,0.0,7.0,75,0.00,,,0.27,weatherlink.com 1.10,2013-02-08 20:00:00,
2013-02-08 14:15:00,44.6,37.0,30.27,North,4,2.0,4.0,74,0.00,,,0.27,weatherlink.com 1.10,2013-02-08 20:15:00,
2013-02-08 14:30:00,44.5,37.0,30.27,NW,316,2.0,7.0,74,0.00,,,0.27,weatherlink.com 1.10,2013-02-08 20:30:00,
2013-02-08 14:45:00,44.5,37.0,30.27,NNW,339,1.0,5.0,74,0.00,,,0.27,weatherlink.com 1.10,2013-02-08 20:45:00,
2013-02-08 15:00:00,44.6,36.0,30.27,East,86,4.0,6.0,73,0.00,,,0.27,weatherlink.com 1.10,2013-02-08 21:00:00,
2013-02-08 15:15:00,45.1,37.0,30.27,NNE,18,2.0,8.0,72,0.00,,,0.27,weatherlink.com 1.10,2013-02-08 21:15:00,
2013-02-08 15:30:00,45.3,37.0,30.27,NE,46,1.0,7.0,72,0.00,,,0.27,weatherlink.com 1.10,2013-02-08 21:30:00,
2013-02-08 15:45:00,45.5,36.0,30.27,NNW,342,0.0,6.0,70,0.00,,,0.27,weatherlink.com 1.10,2013-02-08 21:45:00,
2013-02-08 16:00:00,46.1,36.0,30.29,NNW,340,0.0,4.0,69,0.00,,,0.27,weatherlink.com 1.10,2013-02-08 22:00:00,
2013-02-08 16:15:00,45.9,36.0,30.29,ENE,64,2.0,6.0,68,0.00,,,0.27,weatherlink.com 1.10,2013-02-08 22:15:00,
2013-02-08 16:30:00,45.7,36.0,30.30,NNE,25,1.0,4.0,68,0.00,,,0.27,weatherlink.com 1.10,2013-02-08 22:30:00,
2013-02-08 16:45:00,44.5,35.0,30.30,NNE,25,2.0,6.0,70,0.00,,,0.27,weatherlink.com 1.10,2013-02-08 22:45:00,
2013-02-08 17:00:00,43.8,35.0,30.30,NNW,331,0.0,4.0,71,0.00,,,0.27,weatherlink.com 1.10,2013-02-08 23:00:00,
2013-02-08 17:15:00,43.2,35.0,30.32,NNE,31,0.0,4.0,72,0.00,,,0.27,weatherlink.com 1.10,2013-02-08 23:15:00,
2013-02-08 17:30:00,42.7,35.0,30.32,NE,56,2.0,7.0,73,0.00,,,0.27,weatherlink.com 1.10,2013-02-08 23:30:00,
2013-02-08 17:45:00,42.3,34.0,30.31,NNE,33,3.0,8.0,73,0.00,,,0.27,weatherlink.com 1.10,2013-02-08 23:45:00,
2013-02-08 18:00:00,42.0,35.0,30.30,NNE,26,3.0,7.0,76,0.00,,,0.27,weatherlink.com 1.10,2013-02-09 00:00:00,
2013-02-08 18:15:00,41.6,35.0,30.30,NNE,27,2.0,7.0,76,0.00,,,0.27,weatherlink.com 1.10,2013-02-09 00:15:00,
2013-02-08 18:30:00,40.7,33.0,30.29,East,89,2.0,6.0,75,0.00,,,0.27,weatherlink.com 1.10,2013-02-09 00:30:00,
2013-02-08 18:45:00,40.4,33.0,30.30,NNE,32,4.0,6.0,76,0.00,,,0.27,weatherlink.com 1.10,2013-02-09 00:45:00,
2013-02-08 19:00:00,40.1,33.0,30.31,NNE,32,1.0,4.0,77,0.00,,,0.27,weatherlink.com 1.10,2013-02-09 01:00:00,
2013-02-08 19:15:00,40.0,33.0,30.31,ENE,63,2.0,5.0,77,0.00,,,0.27,weatherlink.com 1.10,2013-02-09 01:15:00,
2013-02-08 19:30:00,40.1,33.0,30.31,ENE,68,1.0,7.0,77,0.00,,,0.27,weatherlink.com 1.10,2013-02-09 01:30:00,
2013-02-08 19:45:00,40.0,33.0,30.33,East,79,1.0,6.0,77,0.00,,,0.27,weatherlink.com 1.10,2013-02-09 01:45:00,
2013-02-08 20:00:00,39.9,33.0,30.35,NE,52,1.0,4.0,76,0.00,,,0.27,weatherlink.com 1.10,2013-02-09 02:00:00,
2013-02-08 20:15:00,39.9,33.0,30.34,NE,50,2.0,5.0,76,0.00,,,0.27,weatherlink.com 1.10,2013-02-09 02:15:00,
2013-02-08 20:30:00,39.4,33.0,30.34,East,89,1.0,4.0,77,0.00,,,0.27,weatherlink.com 1.10,2013-02-09 02:30:00,
2013-02-08 20:45:00,38.8,33.0,30.34,ENE,65,0.0,3.0,78,0.00,,,0.27,weatherlink.com 1.10,2013-02-09 02:45:00,
2013-02-08 21:00:00,38.1,32.0,30.34,NNE,25,0.0,2.0,80,0.00,,,0.27,weatherlink.com 1.10,2013-02-09 03:00:00,
2013-02-08 21:16:00,37.3,32.0,30.34,NE,36,0.0,1.0,81,0.00,,,0.27,weatherlink.com 1.10,2013-02-09 03:16:00,
2013-02-08 21:31:00,36.5,32.0,30.34,NE,35,0.0,0.0,82,0.00,,,0.27,weatherlink.com 1.10,2013-02-09 03:31:00,
2013-02-08 21:46:00,35.8,31.0,30.34,NE,36,0.0,0.0,84,0.00,,,0.27,weatherlink.com 1.10,2013-02-09 03:46:00,
2013-02-08 22:01:00,35.3,31.0,30.34,NE,35,0.0,0.0,85,0.00,,,0.27,weatherlink.com 1.10,2013-02-09 04:01:00,
2013-02-08 22:16:00,34.5,31.0,30.33,NE,36,0.0,0.0,86,0.00,,,0.27,weatherlink.com 1.10,2013-02-09 04:16:00,
2013-02-08 22:31:00,34.4,31.0,30.33,NE,36,0.0,0.0,88,0.00,,,0.27,weatherlink.com 1.10,2013-02-09 04:31:00,
2013-02-08 22:46:00,34.7,31.0,30.32,ENE,60,0.0,0.0,87,0.00,,,0.27,weatherlink.com 1.10,2013-02-09 04:46:00,
2013-02-08 23:01:00,35.1,31.0,30.32,East,82,0.0,0.0,86,0.00,,,0.27,weatherlink.com 1.10,2013-02-09 05:01:00,
2013-02-08 23:16:00,34.6,31.0,30.32,East,82,0.0,0.0,87,0.00,,,0.27,weatherlink.com 1.10,2013-02-09 05:16:00,
2013-02-08 23:31:00,34.3,31.0,30.32,East,82,0.0,0.0,87,0.00,,,0.27,weatherlink.com 1.10,2013-02-09 05:31:00,
2013-02-08 23:46:00,34.5,31.0,30.32,ENE,58,1.0,1.0,88,0.00,,,0.27,weatherlink.com 1.10,2013-02-09 05:46:00,